Wetbulb
74.57 75.15 75.69 75.63 76.55 76.91 76.63 77.68 78.29 78.31 78.03 77.10 77.43 77.36 76.75 76.66 78.07 78.24 77.88 77.83 77.82 78.02 77.96 77.60 75.71 77.81 75.82 75.67 76.34 75.72 74.41 73.94 71.19 72.04 75.53 76.63 76.71 76.71 77.10 77.66 76.91 76.31 75.65
75.12 75.75 75.27 76.07 76.38 76.13 76.27 77.08 77.98 77.99 77.94 77.70 77.57 77.07 76.81 77.33 77.78 77.54 77.13 77.57 77.08 76.96 76.76 77.20 76.79 76.29 77.40 77.40 75.34 75.23 74.23 75.96 73.04 72.44 73.71 73.06 75.39 76.44 77.23 76.44 75.56 75.51 76.13
75.46 75.06 75.28 75.66 75.78 75.83 76.74 77.37 77.82 78.15 77.87 77.53 77.82 77.34 76.54 76.65 77.09 76.97 77.86 77.81 77.80 77.29 77.30 76.98 76.58 76.98 75.99 75.08 74.89 73.18 75.35 75.02 74.37 71.93 71.14 74.07 74.50 75.30 74.88 76.25 75.82 75.68 75.47
75.79 75.30 76.42 76.08 76.43 76.55 77.62 77.87 77.98 78.33 77.99 77.67 77.59 77.45 77.18 76.58 76.82 76.67 77.64 78.02 78.49 77.47 77.51 77.20 77.05 75.95 75.38 74.92 74.11 75.88 74.92 73.65 73.03 72.64 71.89 72.22 73.36 75.62 74.39 73.15 73.23 74.43 74.05
78.26 78.16 78.00 79.15 79.55 79.75 78.91 78.88 78.65 78.55 78.33 77.98 76.71 75.59 75.47 75.92 75.43 76.36 76.93 77.93 78.63 77.84 78.09 78.21 77.06 75.19 70.95 71.98 73.43 75.13 74.68 72.84 71.60 71.22 70.21 71.03 71.45 72.04 72.66 75.98 72.51 73.68 75.13
78.80 78.57 80.14 80.24 80.01 79.90 79.87 79.42 78.54 78.43 78.35 77.64 76.19 75.04 74.21 73.53 69.98 70.62 74.80 77.89 78.83 78.16 77.30 77.29 75.56 72.63 71.25 68.78 69.65 70.71 71.72 73.60 72.15 70.14 69.51 70.35 72.42 72.63 73.26 72.91 71.55 70.74 69.32
77.03 78.56 78.89 79.56 79.11 79.55 79.33 78.82 78.09 77.96 78.07 77.47 76.81 75.53 74.86 74.89 67.63 68.16 69.57 77.82 78.35 77.38 77.95 76.40 73.54 72.86 72.49 73.66 67.73 68.55 68.61 68.38 68.32 72.25 70.53 70.99 72.82 73.78 74.04 73.17 73.30 72.08 70.92
77.62 78.34 79.00 78.75 78.91 79.36 78.84 78.78 78.60 77.96 77.72 77.38 77.32 76.45 75.54 75.62 66.41 66.12 68.32 76.87 78.58 77.75 77.77 76.18 74.45 72.90 72.44 72.32 72.07 71.38 71.29 71.32 71.35 70.77 72.21 72.08 73.76 73.87 74.35 74.15 74.00 73.35 72.61
76.66 78.47 79.00 79.20 78.91 79.07 78.58 78.58 78.80 77.96 77.76 77.74 78.02 77.68 77.06 77.24 65.93 64.91 69.13 77.07 77.22 77.63 77.60 76.72 75.22 73.39 66.12 64.29 71.98 71.29 70.04 68.59 65.93 65.77 65.93 66.40 66.15 67.42 68.61 72.11 69.67 68.92 67.46
78.06 78.93 79.75 79.53 80.04 79.55 79.72 80.23 79.84 78.71 78.00 77.58 77.41 78.02 74.41 78.13 64.90 64.10 69.17 76.87 76.63 76.17 77.32 76.94 69.01 71.65 61.99 62.58 71.46 70.95 67.57 67.06 67.66 70.04 70.28 67.91 68.46 69.25 68.89 72.47 71.41 68.64 69.28
77.36 78.32 79.49 79.81 80.38 81.00 81.16 80.83 80.12 79.56 79.46 78.18 78.06 78.16 78.56 77.32 76.71 63.03 63.77 77.65 76.43 75.50 75.49 75.27 75.30 61.90 59.83 60.02 60.51 70.55 67.33 68.22 65.83 68.01 69.11 69.38 69.76 70.30 70.58 72.20 71.76 69.45 67.57
79.11 78.16 79.68 80.13 78.62 78.95 80.93 81.17 80.56 80.14 80.25 78.58 78.85 77.23 77.39 79.15 69.44 62.32 62.42 64.85 71.23 76.69 75.70 75.70 74.36 59.20 57.17 57.48 60.51 60.90 61.81 63.01 67.33 66.86 67.00 67.26 67.72 68.01 68.73 70.73 70.46 69.01 67.81
79.15 79.19 78.91 79.70 78.89 80.77 80.20 79.71 78.41 79.18 76.62 77.17 76.35 75.98 75.44 77.09 78.33 63.87 60.92 62.16 64.19 74.93 77.06 71.50 60.14 55.81 55.71 58.28 59.35 60.21 59.99 66.06 66.26 65.75 65.71 66.57 67.48 68.97 69.10 68.34 67.96 67.44 66.81
77.91 78.21 78.30 78.09 78.07 78.94 78.51 78.35 76.87 76.29 75.48 74.71 74.45 74.60 75.13 76.07 77.18 77.93 73.43 69.45 64.76 69.91 65.56 70.59 65.35 64.26 62.47 65.07 62.36 61.72 65.07 66.29 65.54 65.08 65.43 66.47 66.76 65.44 65.20 65.33 63.83 63.69 62.26
77.42 77.39 77.36 77.63 77.29 78.54 78.27 77.25 76.50 77.63 74.29 74.23 74.85 74.97 74.74 75.05 75.98 71.70 72.45 75.90 76.13 72.79 73.11 74.18 69.32 68.53 68.13 68.73 67.17 66.78 65.94 65.46 64.07 64.72 64.46 63.99 63.55 63.52 63.04 62.96 61.38 59.99 58.72
76.30 76.71 76.42 76.23 76.99 76.91 76.59 75.62 55.77 58.99 57.77 58.05 58.47 69.08 75.33 66.03 58.42 59.49 57.54 56.85 58.00 58.17 73.11 73.93 71.14 71.22 70.61 69.67 68.36 67.30 66.34 64.45 64.17 64.08 63.54 63.27 62.28 61.84 61.44 61.05 60.56 58.87 58.02
78.13 77.90 76.08 73.73 76.05 75.83 75.91 75.60 74.53 68.57 57.36 55.91 54.46 56.81 58.58 58.76 53.99 53.94 54.30 53.44 50.47 59.04 74.29 74.25 73.32 72.62 72.69 71.04 69.82 68.43 66.86 65.94 67.54 63.83 62.61 62.33 62.09 61.63 59.81 60.54 60.12 58.36 57.34
76.41 64.59 76.29 75.53 75.76 75.79 75.97 75.95 76.12 75.12 74.63 75.04 61.24 58.93 53.92 51.19 50.29 49.92 48.84 55.01 68.31 64.13 74.45 74.60 73.92 73.82 72.95 71.63 70.76 69.31 68.15 66.67 64.59 63.81 62.85 62.09 61.74 60.84 59.66 59.25 58.90 57.64 56.76
75.36 75.05 75.34 75.80 75.88 74.23 76.24 76.45 75.98 75.74 75.57 75.77 74.96 60.52 51.09 45.19 45.37 45.75 49.38 71.52 71.95 72.00 72.50 74.15 74.86 74.79 73.45 72.42 71.65 70.47 69.70 67.21 65.26 64.10 62.98 62.02 61.57 60.56 59.52 58.85 58.08 50.35 52.56
75.71 69.48 71.39 75.65 76.13 75.90 76.12 75.56 75.04 75.25 75.90 75.88 76.28 76.54 66.45 59.35 64.55 62.75 61.86 69.20 71.59 72.61 73.24 74.71 73.51 74.55 74.28 73.29 71.95 70.82 69.21 66.89 65.84 64.30 63.49 62.47 61.46 60.57 59.04 58.59 57.54 56.42 54.58
75.86 74.94 70.83 76.00 75.28 74.91 75.28 75.06 74.27 72.56 75.01 76.57 77.87 76.09 62.00 73.14 73.92 70.65 67.74 69.24 71.47 72.08 72.75 74.01 74.17 74.15 73.90 73.00 72.97 71.79 69.95 68.13 66.35 64.57 63.76 62.60 61.42 59.87 59.39 58.89 57.67 56.51 55.78
76.70 76.25 74.75 74.49 73.54 71.71 70.04 65.80 70.17 73.60 74.06 74.78 75.25 71.91 52.28 72.47 74.47 73.09 71.01 70.39 72.37 73.78 76.20 75.04 73.95 73.33 73.25 72.89 71.84 70.52 69.27 68.15 66.50 64.15 63.96 62.72 60.81 59.90 58.90 57.82 56.77 55.63 54.85
63.62 72.43 75.20 75.30 75.30 70.40 72.83 72.52 72.15 73.95 73.96 74.62 74.37 71.09 65.96 71.60 72.53 72.37 72.56 73.57 74.30 74.23 73.09 72.32 71.73 71.23 71.82 71.41 69.97 67.64 66.37 68.20 64.94 62.33 63.69 60.88 57.68 58.68 58.21 57.17 55.75 54.60 53.68
64.07 61.77 64.05 75.40 75.59 74.88 73.53 73.49 73.93 67.20 73.06 73.09 72.58 71.51 70.63 71.57 72.37 73.10 74.23 74.54 72.69 71.79 71.29 70.10 68.63 67.79 67.96 66.93 65.61 63.74 64.21 62.99 63.54 61.64 61.96 57.06 55.70 55.97 57.62 55.53 55.05 54.25 52.96
65.51 62.91 62.48 74.16 75.12 75.73 75.67 76.19 75.80 75.25 74.02 73.22 72.89 72.53 73.07 73.54 73.04 72.63 71.76 71.75 71.26 70.92 70.04 67.84 66.37 66.84 65.59 64.35 62.42 61.08 54.09 44.85 55.75 50.34 55.42 55.03 53.91 54.36 53.31 52.74 53.67 53.11 51.84
70.21 71.95 73.86 74.52 74.54 74.90 74.56 74.07 73.87 73.87 73.27 72.66 72.33 72.60 72.88 72.50 72.55 72.29 72.05 71.67 70.94 70.15 67.96 65.77 65.03 64.33 63.74 61.72 59.69 46.41 38.14 39.90 47.92 43.37 53.09 53.02 53.27 52.78 51.93 52.39 52.73 51.30 50.95
MSLP
1008.85 1009.65 1010.42 1011.09 1011.72 1012.44 1012.92 1013.51 1013.97 1014.41 1014.87 1015.14 1015.42 1015.54 1015.84 1016.07 1016.19 1016.38 1016.42 1016.51 1016.91 1017.04 1017.09 1017.15 1017.36 1017.37 1017.35 1017.09 1016.53 1016.49 1016.31 1016.22 1015.81 1015.13 1015.71 1015.90 1016.70 1016.69 1016.29 1016.44 1016.47 1016.50 1016.31
1008.05 1009.01 1009.80 1010.63 1011.10 1011.53 1012.15 1012.83 1013.55 1014.14 1014.60 1014.85 1015.15 1015.42 1015.68 1015.83 1016.02 1016.24 1016.36 1016.11 1016.57 1016.77 1016.72 1016.85 1016.99 1016.72 1016.98 1016.76 1016.35 1016.43 1016.06 1016.71 1016.44 1015.98 1015.89 1015.93 1016.25 1016.46 1016.53 1016.73 1016.38 1015.64 1015.87
1007.49 1008.26 1009.06 1009.99 1010.55 1010.90 1011.57 1012.26 1013.03 1013.79 1014.25 1014.55 1014.86 1015.15 1015.38 1015.59 1015.83 1016.04 1016.16 1016.23 1016.31 1016.37 1016.33 1016.59 1016.58 1016.50 1016.48 1016.34 1016.60 1016.14 1015.98 1016.64 1016.26 1016.00 1015.80 1015.59 1015.94 1016.11 1016.00 1016.34 1016.35 1016.16 1015.77
1006.89 1007.58 1008.33 1009.23 1009.87 1010.45 1011.04 1011.83 1012.67 1013.40 1013.94 1014.33 1014.59 1014.82 1015.00 1015.31 1015.61 1015.76 1015.87 1016.01 1015.98 1016.00 1016.20 1016.34 1016.25 1016.28 1016.42 1016.63 1016.47 1016.48 1016.45 1016.61 1016.14 1016.29 1015.61 1015.47 1015.53 1015.91 1016.18 1015.65 1015.52 1015.64 1015.26
1006.59 1007.20 1007.79 1008.60 1009.47 1010.17 1010.83 1011.46 1012.30 1013.01 1013.58 1014.01 1014.35 1014.57 1014.80 1015.08 1015.23 1015.47 1015.61 1015.71 1015.67 1015.74 1015.95 1016.04 1016.20 1016.55 1016.89 1016.95 1016.50 1016.48 1016.87 1016.57 1016.02 1015.78 1015.50 1015.35 1015.25 1015.33 1015.64 1015.98 1015.56 1015.40 1015.63
1006.40 1006.91 1007.65 1008.41 1009.21 1009.84 1010.61 1011.18 1012.00 1012.62 1013.15 1013.61 1013.94 1014.16 1014.49 1014.53 1014.68 1015.20 1015.36 1015.38 1015.51 1015.67 1015.92 1016.18 1016.55 1016.88 1017.08 1017.25 1017.31 1017.24 1017.28 1017.02 1016.83 1016.32 1015.77 1015.50 1016.08 1016.09 1015.91 1015.93 1015.71 1015.37 1015.09
1006.07 1006.77 1007.44 1008.11 1008.83 1009.44 1010.17 1010.87 1011.47 1012.10 1012.62 1013.06 1013.34 1013.63 1013.92 1014.16 1014.45 1015.03 1015.42 1015.29 1015.37 1015.64 1015.73 1016.03 1016.06 1016.20 1016.85 1017.02 1017.40 1017.44 1017.42 1017.48 1017.41 1017.16 1016.78 1016.46 1016.50 1016.49 1016.43 1016.40 1016.40 1016.22 1015.84
1005.57 1006.26 1006.99 1007.64 1008.34 1009.02 1009.61 1010.31 1010.93 1011.56 1012.08 1012.42 1012.75 1013.18 1013.43 1013.81 1014.38 1014.90 1015.40 1015.38 1015.21 1015.41 1015.32 1015.61 1015.78 1016.25 1016.57 1016.76 1016.92 1016.81 1016.79 1016.73 1016.99 1016.53 1016.72 1016.67 1016.79 1016.98 1016.93 1016.69 1016.77 1016.65 1016.16
1004.78 1005.49 1006.21 1006.97 1007.67 1008.31 1008.92 1009.55 1010.15 1010.75 1011.41 1011.82 1012.13 1012.61 1013.06 1013.32 1013.90 1014.51 1015.00 1014.92 1014.70 1015.00 1015.02 1015.28 1015.65 1016.07 1016.51 1016.93 1016.82 1016.64 1016.66 1016.58 1017.18 1017.67 1017.77 1017.64 1017.65 1017.65 1017.50 1016.77 1016.00 1015.75 1015.75
1003.69 1004.52 1005.42 1006.23 1006.87 1007.37 1008.10 1008.76 1009.39 1010.05 1010.58 1010.97 1011.45 1011.94 1012.39 1012.82 1013.35 1013.89 1014.55 1014.00 1013.94 1014.32 1014.65 1015.05 1015.68 1015.86 1016.50 1016.91 1016.78 1016.51 1016.33 1016.15 1016.36 1016.81 1017.45 1017.42 1017.43 1017.36 1017.36 1016.92 1016.42 1015.89 1016.42
1002.94 1004.02 1004.78 1005.53 1006.09 1006.68 1007.45 1008.11 1008.76 1009.36 1009.67 1010.35 1010.68 1011.13 1011.61 1012.21 1012.57 1013.32 1013.90 1013.70 1013.28 1013.88 1013.71 1014.25 1014.88 1015.95 1016.42 1016.87 1017.06 1016.68 1016.55 1016.34 1016.62 1016.44 1016.10 1016.08 1016.06 1016.37 1016.40 1016.73 1017.07 1016.62 1016.20
1002.23 1003.20 1004.12 1004.87 1005.37 1006.08 1006.93 1007.48 1008.16 1008.84 1009.27 1009.81 1010.17 1010.48 1010.70 1011.29 1011.96 1012.80 1013.35 1013.65 1013.23 1013.04 1013.22 1013.49 1014.29 1015.60 1016.57 1017.05 1017.28 1017.17 1017.02 1016.86 1015.93 1015.62 1015.47 1015.48 1015.50 1015.77 1016.22 1016.59 1017.25 1017.42 1017.53
1001.69 1002.57 1003.47 1004.22 1004.82 1005.26 1006.20 1006.83 1007.49 1008.14 1008.22 1008.78 1009.13 1009.16 1009.34 1010.12 1010.92 1011.96 1012.75 1013.29 1013.38 1013.64 1013.06 1013.19 1013.85 1015.20 1016.56 1017.05 1017.18 1017.07 1017.06 1016.56 1015.62 1015.36 1015.18 1015.34 1015.70 1015.85 1016.56 1017.05 1017.41 1017.73 1017.96
1001.51 1002.18 1002.88 1003.45 1004.21 1004.76 1005.54 1006.11 1006.36 1006.63 1007.02 1007.32 1007.70 1007.94 1008.38 1008.76 1009.42 1010.57 1011.92 1012.75 1013.11 1013.19 1013.66 1013.99 1014.41 1015.07 1015.77 1015.67 1016.48 1016.84 1016.49 1015.72 1015.37 1015.12 1015.14 1015.35 1015.94 1016.25 1016.23 1016.27 1016.32 1016.64 1016.88
1001.49 1001.94 1002.24 1002.71 1003.50 1003.99 1004.43 1004.88 1005.27 1005.44 1005.77 1005.96 1006.25 1006.61 1007.05 1007.62 1008.12 1009.12 1010.17 1011.00 1011.42 1011.96 1012.38 1013.09 1014.18 1014.47 1014.78 1014.80 1015.18 1015.18 1015.29 1015.36 1015.33 1015.03 1015.07 1015.26 1015.53 1015.60 1015.72 1016.21 1016.16 1016.19 1016.25
1000.51 1001.17 1001.52 1001.88 1002.72 1002.95 1003.59 1004.73 1005.89 1006.14 1006.07 1005.90 1006.26 1006.16 1006.25 1007.02 1007.69 1008.53 1009.55 1010.30 1010.74 1011.16 1011.84 1011.80 1012.64 1012.97 1013.08 1013.44 1013.68 1013.95 1014.27 1014.57 1014.60 1014.60 1014.63 1014.65 1014.93 1015.26 1015.37 1015.91 1016.01 1015.93 1015.84
999.24 999.69 1000.41 1001.34 1001.50 1002.15 1002.59 1003.27 1004.43 1006.00 1006.39 1006.69 1006.72 1006.89 1006.95 1007.62 1007.94 1008.66 1009.24 1009.85 1010.72 1011.01 1010.79 1010.82 1011.10 1011.37 1011.79 1011.90 1012.22 1012.65 1013.10 1013.64 1014.00 1014.08 1014.23 1014.20 1014.24 1014.52 1015.16 1015.25 1015.56 1015.58 1015.68
999.12 999.37 999.47 999.99 1000.32 1001.04 1001.28 1001.91 1003.00 1003.89 1005.13 1006.09 1006.96 1007.40 1007.56 1008.02 1008.36 1008.88 1009.49 1010.26 1011.09 1011.33 1010.08 1009.67 1009.73 1010.06 1010.72 1010.74 1010.89 1011.21 1011.79 1012.42 1013.35 1013.58 1013.56 1013.71 1013.83 1014.01 1014.44 1014.59 1015.01 1015.16 1015.21
998.51 998.63 999.00 999.19 999.25 999.97 1000.76 1001.52 1002.05 1002.68 1003.27 1004.44 1005.81 1007.76 1008.35 1008.53 1008.89 1009.39 1009.60 1009.48 1009.45 1009.31 1009.35 1009.01 1008.89 1008.87 1009.33 1009.81 1009.92 1010.30 1010.53 1011.07 1011.94 1012.58 1012.88 1013.14 1013.30 1013.41 1013.70 1013.95 1014.26 1014.92 1015.10
998.43 998.48 998.86 998.52 999.10 999.47 1000.36 1000.32 1000.80 1001.85 1002.35 1002.66 1004.72 1006.04 1007.81 1008.85 1009.02 1009.35 1009.38 1008.91 1008.62 1008.23 1008.03 1008.03 1008.32 1008.21 1008.45 1008.62 1008.99 1009.47 1009.86 1010.27 1010.67 1011.48 1011.83 1012.24 1012.68 1012.91 1012.82 1013.41 1013.61 1014.08 1014.92
998.08 998.57 999.11 999.07 1000.05 1000.42 1000.69 1000.82 1000.22 1001.71 1000.17 1002.30 1004.38 1005.14 1006.02 1007.17 1007.16 1007.70 1007.99 1007.87 1007.73 1007.64 1007.49 1007.27 1007.38 1007.50 1007.69 1008.05 1008.04 1008.42 1008.61 1008.89 1009.48 1010.12 1010.85 1011.37 1011.82 1012.11 1012.38 1012.79 1013.10 1013.59 1013.94
998.51 998.63 998.89 998.86 998.95 1000.10 1000.53 1000.95 998.93 1001.66 1002.70 1004.06 1005.36 1006.14 1006.58 1006.54 1005.99 1006.35 1006.77 1006.93 1006.92 1006.91 1006.85 1006.57 1006.42 1006.39 1006.59 1006.71 1007.16 1007.64 1007.95 1008.11 1008.37 1008.88 1009.78 1010.40 1011.00 1011.61 1011.91 1012.31 1012.73 1013.03 1013.65
999.53 999.44 999.14 999.36 999.30 1000.33 999.98 999.85 999.26 1001.43 1002.75 1003.93 1004.69 1005.47 1006.33 1005.51 1005.33 1005.51 1005.65 1005.86 1005.99 1005.96 1006.08 1006.29 1006.27 1006.21 1006.34 1006.71 1006.93 1007.09 1007.42 1007.48 1007.95 1008.26 1008.72 1009.92 1010.63 1011.15 1011.34 1011.89 1012.47 1012.90 1013.20
999.29 999.98 1000.51 999.35 998.85 999.65 999.83 1000.34 1000.73 1001.72 1003.01 1003.51 1003.83 1004.54 1004.53 1004.40 1004.42 1004.47 1004.37 1004.35 1004.72 1005.07 1005.54 1006.05 1006.40 1006.56 1006.72 1006.94 1007.01 1007.07 1007.17 1007.27 1007.82 1007.93 1008.30 1009.84 1010.21 1011.06 1011.30 1011.88 1012.19 1012.69 1013.11
999.60 1000.27 997.36 998.40 998.25 998.57 999.22 1000.13 1000.50 1000.89 1001.97 1002.59 1002.87 1002.79 1002.69 1002.77 1002.95 1003.15 1003.47 1003.78 1004.13 1004.48 1004.96 1005.71 1006.01 1006.17 1006.43 1006.76 1007.01 1007.10 1007.40 1008.16 1008.82 1008.90 1008.55 1009.93 1010.30 1011.30 1011.66 1012.01 1012.01 1012.59 1012.93
998.65 994.30 994.38 994.79 997.08 997.89 998.63 999.13 999.34 999.87 1000.61 1000.90 1001.08 1001.19 1001.51 1001.85 1002.20 1002.55 1002.87 1003.16 1003.66 1003.96 1004.64 1005.13 1005.44 1005.75 1006.17 1006.53 1006.90 1007.23 1007.80 1008.35 1009.08 1009.98 1009.74 1009.89 1010.70 1011.57 1011.84 1011.80 1012.20 1012.33 1012.49
Wind_Speed
18 17 16 15 16 14 12 10 8 8 8 7 7 7 7 8 8 7 6 3 8 7 5 4 6 7 4 6 5 5 5 5 8 7 2 4 5 3 3 4 4 4 7
17 16 17 15 15 15 13 12 11 10 9 9 9 8 9 8 7 7 7 5 6 7 6 5 6 6 5 4 5 2 6 3 6 4 4 5 1 3 3 4 5 4 3
17 18 17 16 16 15 14 13 12 11 10 10 10 10 10 9 8 7 7 5 6 6 6 6 5 5 4 3 4 5 2 5 4 5 6 2 3 2 2 4 4 4 7
18 18 16 17 17 15 14 14 13 12 11 10 10 10 10 10 9 8 8 7 6 7 6 5 5 3 2 3 4 2 3 5 3 6 5 3 2 3 4 4 6 4 3
15 15 16 15 13 13 13 14 13 12 11 10 9 10 10 9 9 11 9 8 8 7 7 6 4 5 6 4 5 2 3 6 4 4 4 3 4 3 3 2 4 3 5
15 15 14 14 14 14 13 14 14 13 12 11 10 10 11 9 11 11 8 8 8 8 7 6 6 8 6 4 2 3 5 4 4 6 6 3 3 4 2 4 4 4 1
16 14 15 15 15 15 15 15 15 14 13 12 11 11 12 12 11 10 8 8 8 9 9 8 7 5 5 6 4 3 3 1 2 5 6 6 5 5 4 4 2 4 5
16 15 15 15 15 15 15 15 15 14 14 13 12 12 11 10 9 10 10 10 8 10 11 9 7 7 6 5 5 4 4 4 6 6 2 5 3 4 5 3 2 2 5
17 16 16 16 16 16 16 16 15 14 13 13 12 12 12 11 12 12 11 11 10 11 10 9 9 8 9 4 5 4 4 4 8 4 3 5 4 3 4 6 5 4 2
17 17 16 16 16 17 16 15 14 14 14 12 13 13 13 12 13 13 13 11 10 9 10 10 5 6 13 8 7 5 4 4 5 9 8 7 8 5 1 4 4 5 2
17 16 15 16 15 15 15 13 14 13 12 13 13 12 14 14 12 16 17 13 9 10 9 9 8 11 12 9 6 5 3 1 3 6 5 5 5 3 3 1 4 6 4
16 17 16 15 14 13 14 13 13 13 11 12 11 11 12 13 12 15 16 19 9 10 10 8 7 16 9 7 7 5 2 6 5 5 5 5 5 4 4 1 3 4 4
16 16 16 15 15 12 14 14 13 13 12 12 12 12 11 11 11 15 18 17 13 8 8 4 17 16 11 7 5 7 7 8 5 5 5 4 4 2 2 4 3 3 3
15 16 15 16 15 14 12 13 13 13 13 13 12 12 12 12 11 12 10 12 11 9 7 7 9 10 9 4 9 7 8 6 5 5 4 4 4 5 6 4 4 5 4
13 13 14 13 16 14 13 13 14 13 14 14 14 13 13 13 13 12 12 13 13 13 13 8 8 10 10 9 9 9 8 6 7 6 6 6 7 6 5 5 4 4 6
14 12 11 11 13 13 13 10 10 9 7 7 3 10 12 4 10 18 16 13 12 15 12 12 11 12 12 11 10 10 9 9 9 8 8 8 7 7 6 6 5 5 5
13 13 12 12 12 12 12 13 12 5 6 4 4 4 6 2 12 14 16 12 3 12 14 12 12 12 11 12 11 11 10 10 9 9 9 9 8 7 6 7 6 6 5
14 11 12 13 13 12 14 13 10 9 9 11 5 6 7 5 10 10 11 10 7 9 13 13 13 12 12 13 12 12 11 10 10 10 10 9 9 9 8 8 7 7 6
13 12 13 12 13 13 11 11 11 10 8 8 7 3 7 9 9 8 14 9 11 12 14 14 13 12 12 13 13 12 12 12 12 11 10 10 10 9 9 8 7 2 2
11 9 12 12 10 12 10 12 12 8 9 8 6 10 8 5 6 7 8 10 9 9 9 10 13 13 14 13 13 13 13 13 13 12 11 11 10 10 10 10 8 8 8
9 11 11 10 11 9 10 7 10 6 7 1 8 8 13 11 10 9 9 9 10 10 11 12 11 12 14 13 13 13 15 15 14 14 12 12 11 10 10 9 9 8 7
3 7 10 11 11 9 12 7 9 2 3 5 8 4 11 8 5 7 8 8 9 9 9 10 10 11 12 13 14 15 15 15 13 13 14 13 11 11 10 9 9 8 8
3 5 9 7 8 9 9 8 7 9 7 9 9 7 7 7 7 7 8 8 9 9 9 9 10 11 11 10 6 9 12 12 12 12 14 10 9 10 10 10 9 8 8
5 9 13 9 9 9 8 7 7 9 9 10 10 9 8 8 9 11 10 8 8 7 6 6 8 11 10 8 6 5 4 7 5 12 15 9 8 9 9 7 9 10 8
1 27 31 16 10 10 10 12 13 13 13 11 10 9 9 9 8 9 8 8 7 6 5 6 6 10 11 12 7 6 7 8 2 3 8 7 8 10 7 7 9 9 9
11 5 3 6 10 9 10 9 9 8 8 7 7 7 7 8 8 9 9 8 7 6 5 4 6 9 8 8 9 11 12 13 11 8 7 7 8 8 6 7 12 8 9
Wind_Direction
196 190 193 196 193 197 203 210 207 198 192 201 197 197 207 206 202 199 228 205 208 219 244 221 225 238 255 235 234 259 267 252 286 321 8 92 303 274 294 237 225 277 176
186 186 193 195 198 193 200 199 197 195 199 200 196 197 200 202 199 207 214 213 210 220 206 219 226 213 227 229 252 281 316 331 300 311 354 296 205 339 296 283 284 250 301
183 187 188 194 194 199 188 194 194 194 202 202 200 201 204 208 200 208 223 218 212 210 220 213 199 187 218 335 282 311 84 229 224 293 299 230 325 315 298 190 223 267 247
183 187 181 189 192 193 186 185 187 193 198 202 205 207 204 205 202 211 208 220 216 208 200 192 188 200 259 256 260 271 236 295 251 250 270 271 254 94 291 293 199 204 319
179 186 181 184 185 182 184 180 185 189 197 197 199 203 200 199 201 210 211 213 218 207 191 191 174 76 66 22 298 77 330 247 269 276 280 277 261 314 1 282 301 304 175
181 186 177 176 178 178 179 175 182 187 193 190 189 185 187 205 185 197 225 212 200 200 187 196 150 146 138 132 75 42 358 296 290 311 307 345 287 275 251 305 310 317 303
185 186 182 178 180 180 178 178 181 187 188 193 189 186 189 210 168 187 209 241 194 193 195 197 199 141 177 162 162 166 168 157 289 303 287 299 327 333 336 284 344 319 329
184 186 184 183 183 183 180 183 180 185 191 192 193 195 200 208 168 178 193 230 206 204 198 198 203 164 187 192 212 226 259 231 209 244 196 281 289 339 328 316 304 258 230
185 188 185 184 184 183 185 184 183 185 191 196 195 195 201 211 173 180 185 212 209 209 205 203 198 188 149 185 235 254 270 273 116 72 20 60 56 7 317 299 257 269 210
186 189 183 184 187 184 184 182 183 187 193 196 196 198 198 209 176 179 190 222 205 210 208 206 200 219 148 187 232 243 251 228 237 159 172 177 199 133 203 271 257 267 10
184 184 183 187 189 184 182 178 180 188 188 200 194 198 206 209 194 185 196 229 213 214 210 204 200 151 161 186 243 249 277 283 190 241 205 194 181 183 180 138 4 319 297
176 182 184 184 189 182 183 177 179 183 189 189 192 204 206 211 219 191 201 222 225 225 222 217 192 151 160 166 217 108 132 250 214 208 210 202 194 194 158 196 63 25 48
177 181 182 182 186 176 182 179 182 184 192 194 194 205 209 194 210 170 195 216 232 246 244 217 127 137 143 175 174 162 194 232 221 218 213 201 216 149 134 175 135 126 144
187 184 181 179 181 184 186 187 197 192 199 195 203 212 206 212 205 184 201 207 222 217 159 132 142 157 191 150 152 195 234 230 226 228 218 202 193 201 211 197 207 189 237
194 197 192 189 188 185 196 194 202 204 203 203 206 210 211 209 213 204 190 198 200 207 195 167 181 188 195 199 205 204 213 204 214 219 212 204 211 205 205 199 208 194 232
188 196 200 201 187 197 193 184 56 30 333 232 314 233 212 151 155 166 180 204 195 158 202 197 207 209 208 208 207 208 210 205 212 206 209 205 207 209 203 203 213 223 224
192 184 191 206 200 201 198 196 202 171 69 337 258 273 270 28 157 172 186 183 159 170 210 214 216 213 220 215 209 210 209 210 209 210 215 208 203 201 193 207 207 217 213
193 198 189 184 200 199 199 197 200 201 206 218 209 249 235 158 170 173 136 139 197 230 220 230 221 220 213 223 218 210 206 197 207 216 211 211 203 199 196 213 210 218 215
192 191 202 190 196 191 188 178 187 195 199 219 158 165 79 80 106 126 160 200 208 211 216 232 236 232 222 224 225 218 206 202 196 206 213 211 205 199 201 204 204 283 236
208 203 210 195 183 178 170 181 171 169 185 185 191 231 153 152 177 175 193 210 222 233 226 223 233 233 227 228 225 217 212 205 189 203 210 205 205 207 200 201 202 192 206
200 176 212 184 178 194 186 189 129 202 120 116 242 219 162 199 195 193 199 207 215 219 225 230 231 231 237 229 218 220 218 209 199 195 202 202 198 203 206 198 201 202 216
196 201 207 214 191 195 200 187 108 119 153 183 228 164 176 217 197 197 202 215 220 225 238 242 248 240 238 232 236 219 220 215 200 182 199 200 193 199 193 198 200 195 200
16 305 194 189 180 170 174 153 129 156 170 203 205 183 195 200 199 201 207 217 219 222 232 250 261 267 271 275 257 220 212 218 203 195 185 191 171 195 191 195 193 201 201
5 291 290 195 158 162 137 142 152 160 193 202 196 191 196 203 208 214 218 215 219 239 255 265 265 264 262 253 238 224 249 216 216 190 167 178 159 191 186 198 186 207 194
152 237 258 236 153 170 160 189 183 182 190 197 200 202 201 207 209 203 204 209 222 233 240 244 254 255 255 235 207 169 133 140 151 135 127 150 138 163 177 191 191 198 196
222 278 197 133 155 169 171 186 182 181 195 194 202 201 205 206 210 213 217 216 217 214 210 223 236 236 232 200 172 133 141 143 138 165 144 139 156 180 189 173 195 195 186